• In Slovakia
  • List of Countries
  • For 7 days
  • Water Temperature
  • Satellite Maps
  • Weather Map
  • Weather Widgets
  • user-avatar
    Login

    Hourly Weather Schleswig

    Today, 22 October, Monday

    Time Temperature Precipitation Wind Pressure Humidity
    00:00 +12°C° 0.1 mm 5 mps 765 mmHg 88%
    01:00 +12°C° 0.1 mm 5 mps 765 mmHg 89%
    02:00 +12°C° 0.1 mm 5 mps 765 mmHg 87%
    03:00 +12°C° 0.1 mm 5 mps 765 mmHg 86%
    04:00 +12°C° 0.1 mm 5 mps 765 mmHg 85%
    05:00 +10°C° 0 mm 5 mps 766 mmHg 84%
    06:00 +9°C° 0 mm 5 mps 766 mmHg 84%
    07:00 +8°C° 0 mm 5 mps 767 mmHg 83%
    08:00 +9°C° 0 mm 6 mps 767 mmHg 77%
    09:00 +10°C° 0 mm 6 mps 768 mmHg 71%
    10:00 +10°C° 0 mm 6 mps 768 mmHg 64%
    11:00 +11°C° 0 mm 7 mps 768 mmHg 61%
    12:00 +11°C° 0 mm 7 mps 769 mmHg 57%
    13:00 +11°C° 0 mm 7 mps 769 mmHg 53%
    14:00 +11°C° 0 mm 7 mps 769 mmHg 55%
    15:00 +10°C° 0 mm 7 mps 769 mmHg 56%
    16:00 +10°C° 0 mm 6 mps 769 mmHg 58%
    17:00 +9°C° 0 mm 6 mps 769 mmHg 61%
    18:00 +8°C° 0 mm 5 mps 769 mmHg 65%
    19:00 +8°C° 0 mm 5 mps 769 mmHg 68%
    20:00 +8°C° 0 mm 5 mps 768 mmHg 70%
    21:00 +8°C° 0 mm 6 mps 768 mmHg 71%
    22:00 +8°C° 0 mm 6 mps 768 mmHg 72%
    23:00 +8°C° 0 mm 7 mps 767 mmHg 73%

    Tomorrow, 23 October, Tuesday

    Time Temperature Precipitation Wind Pressure Humidity
    00:00 +9°C° 0 mm 8 mps 766 mmHg 73%
    01:00 +8°C° 0 mm 9 mps 765 mmHg 74%
    02:00 +9°C° 0.3 mm 10 mps 764 mmHg 76%
    03:00 +9°C° 0.3 mm 11 mps 763 mmHg 78%
    04:00 +9°C° 0.3 mm 12 mps 762 mmHg 80%
    05:00 +9°C° 0.9 mm 12 mps 761 mmHg 81%
    06:00 +9°C° 0.9 mm 12 mps 760 mmHg 83%
    07:00 +9°C° 0.9 mm 12 mps 759 mmHg 84%
    08:00 +10°C° 1.1 mm 12 mps 758 mmHg 85%
    09:00 +10°C° 1.1 mm 12 mps 758 mmHg 86%
    10:00 +10°C° 1.1 mm 13 mps 757 mmHg 86%
    11:00 +10°C° 0.4 mm 12 mps 757 mmHg 86%
    12:00 +12°C° 0.4 mm 12 mps 756 mmHg 85%
    13:00 +12°C° 0.4 mm 12 mps 756 mmHg 84%
    14:00 +12°C° 0.3 mm 12 mps 756 mmHg 84%
    15:00 +12°C° 0.3 mm 12 mps 755 mmHg 85%
    16:00 +11°C° 0.3 mm 11 mps 755 mmHg 85%
    17:00 +12°C° 0.4 mm 12 mps 755 mmHg 85%
    18:00 +12°C° 0.4 mm 12 mps 755 mmHg 85%
    19:00 +12°C° 0.4 mm 12 mps 755 mmHg 86%
    20:00 +12°C° 0.2 mm 12 mps 755 mmHg 85%
    21:00 +10°C° 0.2 mm 12 mps 755 mmHg 84%
    22:00 +10°C° 0.2 mm 12 mps 755 mmHg 83%
    23:00 +9°C° 0.1 mm 11 mps 755 mmHg 80%

    Day after tomorrow, 24 October, Wednesday

    Time Temperature Precipitation Wind Pressure Humidity
    00:00 +8°C° 0.1 mm 11 mps 756 mmHg 78%
    01:00 +7°C° 0.1 mm 10 mps 756 mmHg 75%
    02:00 +7°C° 0 mm 10 mps 757 mmHg 74%
    03:00 +6°C° 0 mm 10 mps 758 mmHg 73%
    04:00 +6°C° 0 mm 9 mps 758 mmHg 72%
    05:00 +5°C° 0 mm 9 mps 759 mmHg 72%
    06:00 +5°C° 0 mm 8 mps 759 mmHg 71%
    07:00 +5°C° 0 mm 7 mps 760 mmHg 70%
    08:00 +5°C° 0 mm 8 mps 761 mmHg 68%
    09:00 +6°C° 0 mm 8 mps 761 mmHg 65%
    10:00 +7°C° 0 mm 8 mps 762 mmHg 62%
    11:00 +7°C° 0 mm 8 mps 762 mmHg 62%
    12:00 +9°C° 0 mm 7 mps 762 mmHg 61%
    13:00 +9°C° 0 mm 7 mps 762 mmHg 61%
    14:00 +9°C° 0 mm 7 mps 762 mmHg 63%
    15:00 +9°C° 0 mm 6 mps 762 mmHg 64%
    16:00 +9°C° 0 mm 6 mps 762 mmHg 66%
    17:00 +8°C° 0 mm 6 mps 762 mmHg 71%
    18:00 +8°C° 0 mm 5 mps 762 mmHg 76%
    19:00 +7°C° 0 mm 5 mps 762 mmHg 81%
    20:00 +7°C° 0 mm 5 mps 762 mmHg 84%
    21:00 +8°C° 0 mm 5 mps 762 mmHg 86%
    22:00 +9°C° 0 mm 5 mps 762 mmHg 89%
    23:00 +9°C° 0 mm 6 mps 761 mmHg 89%

    25 October, Thursday

    Time Temperature Precipitation Wind Pressure Humidity
    00:00 +10°C° 0 mm 6 mps 761 mmHg 89%
    01:00 +11°C° 0 mm 7 mps 761 mmHg 89%
    02:00 +10°C° 0.1 mm 7 mps 760 mmHg 86%
    03:00 +10°C° 0.1 mm 8 mps 760 mmHg 83%
    04:00 +10°C° 0.1 mm 8 mps 760 mmHg 80%
    05:00 +10°C° 0 mm 8 mps 760 mmHg 80%
    06:00 +10°C° 0 mm 7 mps 759 mmHg 81%
    07:00 +9°C° 0 mm 7 mps 759 mmHg 81%
    08:00 +10°C° 0 mm 7 mps 759 mmHg 80%
    09:00 +10°C° 0 mm 7 mps 759 mmHg 78%
    10:00 +11°C° 0 mm 7 mps 759 mmHg 77%
    11:00 +11°C° 0 mm 7 mps 759 mmHg 76%
    12:00 +11°C° 0 mm 7 mps 759 mmHg 75%
    13:00 +11°C° 0 mm 7 mps 758 mmHg 74%
    14:00 +11°C° 0 mm 7 mps 758 mmHg 75%
    15:00 +11°C° 0 mm 6 mps 758 mmHg 76%
    16:00 +11°C° 0 mm 6 mps 757 mmHg 77%
    17:00 +10°C° 0 mm 6 mps 757 mmHg 79%
    18:00 +10°C° 0 mm 6 mps 756 mmHg 81%
    19:00 +9°C° 0 mm 5 mps 756 mmHg 83%
    20:00 +9°C° 0 mm 5 mps 755 mmHg 83%
    21:00 +9°C° 0 mm 5 mps 755 mmHg 83%
    22:00 +9°C° 0 mm 6 mps 755 mmHg 82%
    23:00 +9°C° 0.1 mm 6 mps 754 mmHg 82%

    26 October, Friday

    Time Temperature Precipitation Wind Pressure Humidity
    00:00 +9°C° 0.1 mm 6 mps 753 mmHg 82%
    01:00 +9°C° 0.1 mm 6 mps 753 mmHg 82%
    02:00 +9°C° 0.1 mm 6 mps 752 mmHg 82%
    03:00 +9°C° 0.1 mm 6 mps 751 mmHg 82%
    04:00 +9°C° 0.1 mm 6 mps 751 mmHg 82%
    05:00 +9°C° 0.1 mm 7 mps 750 mmHg 82%
    06:00 +9°C° 0.1 mm 7 mps 749 mmHg 83%
    07:00 +9°C° 0.1 mm 7 mps 749 mmHg 83%
    08:00 +9°C° 0.4 mm 7 mps 749 mmHg 82%
    09:00 +9°C° 0.4 mm 8 mps 748 mmHg 81%
    10:00 +9°C° 0.4 mm 8 mps 748 mmHg 80%
    11:00 +9°C° 0.1 mm 8 mps 748 mmHg 73%
    12:00 +8°C° 0.1 mm 9 mps 748 mmHg 66%
    13:00 +10°C° 0.1 mm 9 mps 748 mmHg 59%
    14:00 +9°C° 0 mm 8 mps 748 mmHg 60%
    15:00 +9°C° 0 mm 7 mps 748 mmHg 61%
    16:00 +8°C° 0 mm 7 mps 748 mmHg 61%
    17:00 +8°C° 0 mm 6 mps 748 mmHg 64%
    18:00 +7°C° 0 mm 6 mps 748 mmHg 67%
    19:00 +6°C° 0 mm 5 mps 748 mmHg 70%
    20:00 +6°C° 0 mm 5 mps 748 mmHg 72%
    21:00 +6°C° 0 mm 5 mps 748 mmHg 73%
    22:00 +6°C° 0 mm 5 mps 748 mmHg 75%
    23:00 +6°C° 0 mm 5 mps 748 mmHg 76%

    27 October, Saturday

    Time Temperature Precipitation Wind Pressure Humidity
    00:00 +5°C° 0 mm 5 mps 748 mmHg 78%
    01:00 +5°C° 0 mm 4 mps 748 mmHg 79%
    02:00 +5°C° 0 mm 4 mps 747 mmHg 80%
    03:00 +5°C° 0 mm 4 mps 747 mmHg 80%
    04:00 +4°C° 0 mm 4 mps 746 mmHg 81%
    05:00 +4°C° 0.1 mm 4 mps 746 mmHg 82%
    06:00 +4°C° 0.1 mm 4 mps 746 mmHg 83%
    07:00 +3°C° 0.1 mm 5 mps 746 mmHg 83%
    08:00 +5°C° 0.1 mm 5 mps 747 mmHg 79%
    09:00 +6°C° 0.1 mm 5 mps 747 mmHg 75%
    10:00 +7°C° 0.1 mm 5 mps 747 mmHg 70%
    11:00 +8°C° 0.1 mm 5 mps 747 mmHg 68%
    12:00 +8°C° 0.1 mm 4 mps 747 mmHg 65%
    13:00 +10°C° 0.1 mm 4 mps 747 mmHg 62%
    14:00 +8°C° 0.1 mm 4 mps 747 mmHg 65%
    15:00 +9°C° 0.1 mm 3 mps 748 mmHg 69%
    16:00 +8°C° 0.1 mm 3 mps 748 mmHg 72%
    17:00 +6°C° 0.1 mm 4 mps 748 mmHg 76%
    18:00 +6°C° 0.1 mm 4 mps 749 mmHg 80%
    19:00 +5°C° 0.1 mm 4 mps 749 mmHg 84%
    20:00 +3°C° 0 mm 5 mps 750 mmHg 84%
    21:00 +3°C° 0 mm 5 mps 750 mmHg 84%
    22:00 +3°C° 0 mm 5 mps 751 mmHg 85%
    23:00 +3°C° 0.1 mm 6 mps 751 mmHg 84%

    28 October, Sunday

    Time Temperature Precipitation Wind Pressure Humidity
    00:00 +3°C° 0.1 mm 7 mps 751 mmHg 83%
    01:00 +4°C° 0.1 mm 7 mps 752 mmHg 82%
    02:00 +4°C° 0.1 mm 7 mps 752 mmHg 81%
    03:00 +3°C° 0.1 mm 7 mps 752 mmHg 81%
    04:00 +3°C° 0.1 mm 7 mps 753 mmHg 81%
    05:00 +3°C° 0.1 mm 7 mps 753 mmHg 81%
    06:00 +3°C° 0.1 mm 7 mps 753 mmHg 81%
    07:00 +3°C° 0.1 mm 7 mps 754 mmHg 81%
    08:00 +2°C° 0.1 mm 8 mps 754 mmHg 80%
    09:00 +4°C° 0.1 mm 8 mps 755 mmHg 79%
    10:00 +4°C° 0.1 mm 8 mps 755 mmHg 79%
    11:00 +4°C° 0.2 mm 8 mps 755 mmHg 79%
    12:00 +4°C° 0.2 mm 8 mps 755 mmHg 79%
    13:00 +4°C° 0.2 mm 8 mps 756 mmHg 80%
    14:00 +4°C° 0.5 mm 8 mps 756 mmHg 81%
    15:00 +4°C° 0.5 mm 8 mps 756 mmHg 82%
    16:00 +4°C° 0.5 mm 8 mps 756 mmHg 83%
    17:00 +4°C° 0.3 mm 8 mps 756 mmHg 83%
    18:00 +4°C° 0.3 mm 8 mps 757 mmHg 84%
    19:00 +4°C° 0.3 mm 8 mps 757 mmHg 84%
    20:00 +2°C° 0.6 mm 8 mps 757 mmHg 84%
    21:00 +2°C° 0.6 mm 8 mps 758 mmHg 84%
    22:00 +2°C° 0.6 mm 8 mps 758 mmHg 84%
    23:00 +2°C° 1.3 mm 8 mps 758 mmHg 85%
    Show more